Wetterdaten: Mittwoch, 03.02.2016
Datum Zeit Temp. A. Feuchte A. Luftdruck Regen Wind Richtung Richtung Sonnenschein ET UV Solar Taupunkt Windchill Windben Empfang
03.02.2016 00:00 8,6 C 77 % 1016,5 hPa 0,0 l/m 15,9 km/h (3 Bft) SW 232 0 min 0,000 mm 0,0 UV-I 0 W/m 4,8 C 3,0 C 27,4 km/h (4 Bft) 96,67 %
03.02.2016 00:05 8,7 C 77 % 1016,6 hPa 0,0 l/m 19,1 km/h (3 Bft) W-SW 245 0 min 0,000 mm 0,0 UV-I 0 W/m 4,9 C 1,9 C 30,6 km/h (5 Bft) 96,52 %
03.02.2016 00:10 8,8 C 76 % 1016,6 hPa 0,0 l/m 20,1 km/h (4 Bft) W-SW 244 0 min 0,000 mm 0,0 UV-I 0 W/m 4,8 C 1,7 C 30,6 km/h (5 Bft) 96,33 %
03.02.2016 00:15 8,8 C 76 % 1016,6 hPa 0,0 l/m 18,3 km/h (3 Bft) SW 234 0 min 0,000 mm 0,0 UV-I 0 W/m 4,8 C 2,3 C 30,6 km/h (5 Bft) 96,58 %
03.02.2016 00:20 8,8 C 76 % 1016,5 hPa 0,0 l/m 22,3 km/h (4 Bft) SW 231 0 min 0,000 mm 0,0 UV-I 0 W/m 4,8 C 1,0 C 33,8 km/h (5 Bft) 96,85 %
03.02.2016 00:25 8,9 C 75 % 1016,4 hPa 0,0 l/m 25,1 km/h (4 Bft) W-SW 248 0 min 0,000 mm 0,0 UV-I 0 W/m 4,7 C 0,3 C 35,4 km/h (5 Bft) 97,22 %
03.02.2016 00:30 8,9 C 75 % 1016,5 hPa 0,0 l/m 24,8 km/h (4 Bft) W-SW 256 0 min 0,000 mm 0,0 UV-I 0 W/m 4,7 C 0,4 C 37,0 km/h (5 Bft) 99,17 %
03.02.2016 00:35 8,9 C 75 % 1016,4 hPa 0,0 l/m 21,1 km/h (4 Bft) SW 232 0 min 0,000 mm 0,0 UV-I 0 W/m 4,7 C 1,5 C 33,8 km/h (5 Bft) 100,00 %
03.02.2016 00:40 8,9 C 75 % 1016,4 hPa 0,0 l/m 23,1 km/h (4 Bft) SW 217 0 min 0,000 mm 0,0 UV-I 0 W/m 4,7 C 0,9 C 40,2 km/h (6 Bft) 99,15 %
03.02.2016 00:45 8,8 C 75 % 1016,4 hPa 0,0 l/m 22,1 km/h (4 Bft) SW 230 0 min 0,000 mm 0,0 UV-I 0 W/m 4,6 C 1,1 C 32,2 km/h (5 Bft) 100,00 %
03.02.2016 00:50 8,9 C 75 % 1016,5 hPa 0,0 l/m 24,5 km/h (4 Bft) W-SW 242 0 min 0,000 mm 0,0 UV-I 0 W/m 4,7 C 0,5 C 38,6 km/h (5 Bft) 100,00 %
03.02.2016 00:55 8,9 C 75 % 1016,5 hPa 0,0 l/m 21,4 km/h (4 Bft) SW 220 0 min 0,000 mm 0,0 UV-I 0 W/m 4,7 C 1,4 C 37,0 km/h (5 Bft) 99,15 %
03.02.2016 01:00 9,0 C 74 % 1016,5 hPa 0,0 l/m 21,2 km/h (4 Bft) SW 236 0 min 0,051 mm 0,0 UV-I 0 W/m 4,6 C 1,6 C 35,4 km/h (5 Bft) 97,46 %
03.02.2016 01:05 9,0 C 74 % 1016,6 hPa 0,0 l/m 21,8 km/h (4 Bft) W 259 0 min 0,000 mm 0,0 UV-I 0 W/m 4,6 C 1,4 C 33,8 km/h (5 Bft) 98,33 %
03.02.2016 01:10 8,9 C 75 % 1016,6 hPa 0,0 l/m 20,5 km/h (4 Bft) W-SW 237 0 min 0,000 mm 0,0 UV-I 0 W/m 4,7 C 1,7 C 33,8 km/h (5 Bft) 99,06 %
03.02.2016 01:15 8,9 C 74 % 1016,6 hPa 0,0 l/m 21,6 km/h (4 Bft) SW 222 0 min 0,000 mm 0,0 UV-I 0 W/m 4,5 C 1,3 C 32,2 km/h (5 Bft) 100,00 %
03.02.2016 01:20 8,9 C 74 % 1016,5 hPa 0,0 l/m 19,9 km/h (4 Bft) S 190 0 min 0,000 mm 0,0 UV-I 0 W/m 4,5 C 1,9 C 32,2 km/h (5 Bft) 99,17 %
03.02.2016 01:25 8,8 C 74 % 1016,5 hPa 0,0 l/m 19,4 km/h (3 Bft) SW 221 0 min 0,000 mm 0,0 UV-I 0 W/m 4,4 C 1,9 C 33,8 km/h (5 Bft) 100,00 %
03.02.2016 01:30 8,8 C 74 % 1016,5 hPa 0,0 l/m 21,0 km/h (4 Bft) W-SW 248 0 min 0,000 mm 0,0 UV-I 0 W/m 4,4 C 1,4 C 32,2 km/h (5 Bft) 100,00 %
03.02.2016 01:35 8,8 C 74 % 1016,5 hPa 0,0 l/m 25,7 km/h (4 Bft) W-SW 242 0 min 0,000 mm 0,0 UV-I 0 W/m 4,4 C 0,0 C 43,5 km/h (6 Bft) 100,00 %
03.02.2016 01:40 8,8 C 74 % 1016,6 hPa 0,0 l/m 20,6 km/h (4 Bft) SW 225 0 min 0,000 mm 0,0 UV-I 0 W/m 4,4 C 1,5 C 30,6 km/h (5 Bft) 99,17 %
03.02.2016 01:45 8,9 C 74 % 1016,5 hPa 0,0 l/m 20,4 km/h (4 Bft) S-SW 210 0 min 0,000 mm 0,0 UV-I 0 W/m 4,5 C 1,7 C 37,0 km/h (5 Bft) 98,15 %
03.02.2016 01:50 8,9 C 73 % 1016,5 hPa 0,0 l/m 21,5 km/h (4 Bft) SW 234 0 min 0,000 mm 0,0 UV-I 0 W/m 4,3 C 1,4 C 37,0 km/h (5 Bft) 100,00 %
03.02.2016 01:55 9,0 C 73 % 1016,6 hPa 0,0 l/m 22,7 km/h (4 Bft) SW 233 0 min 0,000 mm 0,0 UV-I 0 W/m 4,4 C 1,1 C 38,6 km/h (5 Bft) 99,19 %
03.02.2016 02:00 9,0 C 73 % 1016,6 hPa 0,0 l/m 21,5 km/h (4 Bft) W-SW 253 0 min 0,051 mm 0,0 UV-I 0 W/m 4,4 C 1,5 C 37,0 km/h (5 Bft) 96,49 %
03.02.2016 02:05 9,0 C 73 % 1016,6 hPa 0,0 l/m 21,3 km/h (4 Bft) SW 224 0 min 0,000 mm 0,0 UV-I 0 W/m 4,4 C 1,6 C 32,2 km/h (5 Bft) 96,77 %
03.02.2016 02:10 9,0 C 73 % 1016,6 hPa 0,0 l/m 18,6 km/h (3 Bft) SW 229 0 min 0,000 mm 0,0 UV-I 0 W/m 4,4 C 2,5 C 33,8 km/h (5 Bft) 98,11 %
03.02.2016 02:15 9,0 C 73 % 1016,6 hPa 0,0 l/m 18,2 km/h (3 Bft) W 259 0 min 0,000 mm 0,0 UV-I 0 W/m 4,4 C 2,6 C 27,4 km/h (4 Bft) 96,03 %
03.02.2016 02:20 9,0 C 73 % 1016,6 hPa 0,0 l/m 16,9 km/h (3 Bft) S 188 0 min 0,000 mm 0,0 UV-I 0 W/m 4,4 C 3,1 C 27,4 km/h (4 Bft) 96,61 %
03.02.2016 02:25 8,9 C 74 % 1016,6 hPa 0,0 l/m 18,6 km/h (3 Bft) W-SW 240 0 min 0,000 mm 0,0 UV-I 0 W/m 4,5 C 2,4 C 29,0 km/h (5 Bft) 97,30 %
03.02.2016 02:30 8,8 C 75 % 1016,6 hPa 0,0 l/m 17,3 km/h (3 Bft) S 187 0 min 0,000 mm 0,0 UV-I 0 W/m 4,6 C 2,7 C 24,1 km/h (4 Bft) 97,58 %
03.02.2016 02:35 8,8 C 74 % 1016,6 hPa 0,0 l/m 16,6 km/h (3 Bft) S-SW 194 0 min 0,000 mm 0,0 UV-I 0 W/m 4,4 C 3,0 C 30,6 km/h (5 Bft) 99,08 %
03.02.2016 02:40 9,0 C 73 % 1016,5 hPa 0,0 l/m 19,2 km/h (3 Bft) S-SW 206 0 min 0,000 mm 0,0 UV-I 0 W/m 4,4 C 2,3 C 32,2 km/h (5 Bft) 98,37 %
03.02.2016 02:45 9,2 C 72 % 1016,4 hPa 0,0 l/m 19,4 km/h (3 Bft) SW 225 0 min 0,000 mm 0,0 UV-I 0 W/m 4,4 C 2,5 C 35,4 km/h (5 Bft) 97,32 %
03.02.2016 02:50 9,3 C 71 % 1016,4 hPa 0,0 l/m 19,4 km/h (3 Bft) S-SW 198 0 min 0,000 mm 0,0 UV-I 0 W/m 4,3 C 2,6 C 33,8 km/h (5 Bft) 99,13 %
03.02.2016 02:55 9,4 C 71 % 1016,4 hPa 0,0 l/m 22,0 km/h (4 Bft) SW 225 0 min 0,000 mm 0,0 UV-I 0 W/m 4,4 C 1,9 C 33,8 km/h (5 Bft) 98,37 %
03.02.2016 03:00 9,4 C 70 % 1016,3 hPa 0,0 l/m 20,7 km/h (4 Bft) S-SW 207 0 min 0,050 mm 0,0 UV-I 0 W/m 4,2 C 2,3 C 33,8 km/h (5 Bft) 98,21 %
03.02.2016 03:05 9,5 C 70 % 1016,3 hPa 0,0 l/m 18,6 km/h (3 Bft) W-SW 250 0 min 0,000 mm 0,0 UV-I 0 W/m 4,3 C 3,1 C 32,2 km/h (5 Bft) 100,00 %
03.02.2016 03:10 9,4 C 70 % 1016,2 hPa 0,0 l/m 18,9 km/h (3 Bft) S-SW 211 0 min 0,000 mm 0,0 UV-I 0 W/m 4,2 C 2,9 C 33,8 km/h (5 Bft) 99,08 %
03.02.2016 03:15 9,3 C 70 % 1016,2 hPa 0,0 l/m 18,8 km/h (3 Bft) S-SO 167 0 min 0,000 mm 0,0 UV-I 0 W/m 4,1 C 2,8 C 30,6 km/h (5 Bft) 100,00 %
03.02.2016 03:20 9,4 C 70 % 1016,2 hPa 0,0 l/m 20,3 km/h (4 Bft) S-SW 200 0 min 0,000 mm 0,0 UV-I 0 W/m 4,2 C 2,4 C 33,8 km/h (5 Bft) 100,00 %
03.02.2016 03:25 9,5 C 70 % 1016,2 hPa 0,0 l/m 21,6 km/h (4 Bft) SW 215 0 min 0,000 mm 0,0 UV-I 0 W/m 4,3 C 2,1 C 35,4 km/h (5 Bft) 100,00 %
03.02.2016 03:30 9,6 C 70 % 1016,1 hPa 0,0 l/m 22,3 km/h (4 Bft) SW 221 0 min 0,000 mm 0,0 UV-I 0 W/m 4,4 C 2,0 C 33,8 km/h (5 Bft) 98,26 %
03.02.2016 03:35 9,6 C 70 % 1016,1 hPa 0,0 l/m 22,2 km/h (4 Bft) SW 231 0 min 0,000 mm 0,0 UV-I 0 W/m 4,4 C 2,1 C 33,8 km/h (5 Bft) 99,15 %
03.02.2016 03:40 9,5 C 70 % 1016,1 hPa 0,0 l/m 20,7 km/h (4 Bft) SW 217 0 min 0,000 mm 0,0 UV-I 0 W/m 4,3 C 2,4 C 33,8 km/h (5 Bft) 100,00 %
03.02.2016 03:45 9,6 C 70 % 1016,1 hPa 0,0 l/m 20,3 km/h (4 Bft) S-SW 196 0 min 0,000 mm 0,0 UV-I 0 W/m 4,4 C 2,7 C 32,2 km/h (5 Bft) 98,25 %
03.02.2016 03:50 9,6 C 70 % 1016,1 hPa 0,0 l/m 17,9 km/h (3 Bft) SW 236 0 min 0,000 mm 0,0 UV-I 0 W/m 4,4 C 3,5 C 27,4 km/h (4 Bft) 99,19 %
03.02.2016 03:55 9,6 C 70 % 1016,1 hPa 0,0 l/m 21,8 km/h (4 Bft) W-NW 284 0 min 0,000 mm 0,0 UV-I 0 W/m 4,4 C 2,2 C 35,4 km/h (5 Bft) 99,03 %
03.02.2016 04:00 9,6 C 70 % 1016,1 hPa 0,0 l/m 20,6 km/h (4 Bft) S-SW 205 0 min 0,077 mm 0,0 UV-I 0 W/m 4,4 C 2,6 C 32,2 km/h (5 Bft) 100,00 %
03.02.2016 04:05 9,6 C 70 % 1016,1 hPa 0,0 l/m 20,4 km/h (4 Bft) S-SW 212 0 min 0,000 mm 0,0 UV-I 0 W/m 4,4 C 2,6 C 32,2 km/h (5 Bft) 97,00 %
03.02.2016 04:10 9,6 C 70 % 1016,1 hPa 0,0 l/m 20,2 km/h (4 Bft) W-SW 247 0 min 0,000 mm 0,0 UV-I 0 W/m 4,4 C 2,7 C 32,2 km/h (5 Bft) 97,46 %
03.02.2016 04:15 9,6 C 70 % 1016,1 hPa 0,0 l/m 17,3 km/h (3 Bft) W-SW 250 0 min 0,000 mm 0,0 UV-I 0 W/m 4,4 C 3,7 C 29,0 km/h (5 Bft) 95,93 %
03.02.2016 04:20 9,5 C 71 % 1015,9 hPa 0,0 l/m 17,1 km/h (3 Bft) SW 220 0 min 0,000 mm 0,0 UV-I 0 W/m 4,5 C 3,7 C 29,0 km/h (5 Bft) 96,33 %
03.02.2016 04:25 9,6 C 71 % 1015,8 hPa 0,0 l/m 18,7 km/h (3 Bft) W-SW 253 0 min 0,000 mm 0,0 UV-I 0 W/m 4,6 C 3,2 C 30,6 km/h (5 Bft) 96,67 %
03.02.2016 04:30 9,6 C 70 % 1015,8 hPa 0,0 l/m 19,3 km/h (3 Bft) W 261 0 min 0,000 mm 0,0 UV-I 0 W/m 4,4 C 3,0 C 35,4 km/h (5 Bft) 97,46 %
03.02.2016 04:35 9,7 C 70 % 1015,8 hPa 0,0 l/m 18,7 km/h (3 Bft) SW 218 0 min 0,000 mm 0,0 UV-I 0 W/m 4,5 C 3,3 C 33,8 km/h (5 Bft) 97,39 %
03.02.2016 04:40 9,7 C 70 % 1015,8 hPa 0,0 l/m 18,9 km/h (3 Bft) SW 219 0 min 0,000 mm 0,0 UV-I 0 W/m 4,5 C 3,3 C 30,6 km/h (5 Bft) 98,25 %
03.02.2016 04:45 9,7 C 70 % 1015,9 hPa 0,0 l/m 18,8 km/h (3 Bft) W-SW 250 0 min 0,000 mm 0,0 UV-I 0 W/m 4,5 C 3,3 C 30,6 km/h (5 Bft) 99,17 %
03.02.2016 04:50 9,7 C 69 % 1016,0 hPa 0,0 l/m 20,0 km/h (4 Bft) W 261 0 min 0,000 mm 0,0 UV-I 0 W/m 4,3 C 2,9 C 33,8 km/h (5 Bft) 98,33 %
03.02.2016 04:55 9,6 C 71 % 1016,5 hPa 0,0 l/m 14,6 km/h (3 Bft) W-SW 257 0 min 0,000 mm 0,0 UV-I 0 W/m 4,6 C 4,8 C 29,0 km/h (5 Bft) 100,00 %
03.02.2016 05:00 8,9 C 74 % 1016,4 hPa 0,0 l/m 14,2 km/h (3 Bft) NW 318 0 min 0,050 mm 0,0 UV-I 0 W/m 4,5 C 4,2 C 29,0 km/h (5 Bft) 98,39 %
03.02.2016 05:05 8,2 C 77 % 1016,6 hPa 0,0 l/m 11,0 km/h (2 Bft) W 271 0 min 0,000 mm 0,0 UV-I 0 W/m 4,4 C 5,0 C 29,0 km/h (5 Bft) 99,15 %
03.02.2016 05:10 7,8 C 78 % 1016,7 hPa 0,0 l/m 13,5 km/h (3 Bft) W 274 0 min 0,000 mm 0,0 UV-I 0 W/m 4,2 C 3,2 C 25,7 km/h (4 Bft) 100,00 %
03.02.2016 05:15 7,6 C 79 % 1016,6 hPa 0,0 l/m 15,9 km/h (3 Bft) W-NW 291 0 min 0,000 mm 0,0 UV-I 0 W/m 4,2 C 1,8 C 29,0 km/h (5 Bft) 99,11 %
03.02.2016 05:20 7,4 C 80 % 1016,6 hPa 0,0 l/m 7,8 km/h (2 Bft) W-SW 243 0 min 0,000 mm 0,0 UV-I 0 W/m 4,2 C 6,3 C 16,1 km/h (3 Bft) 99,10 %
03.02.2016 05:25 7,3 C 79 % 1016,6 hPa 0,0 l/m 11,4 km/h (2 Bft) W-NW 284 0 min 0,000 mm 0,0 UV-I 0 W/m 3,9 C 3,8 C 22,5 km/h (4 Bft) 100,00 %
03.02.2016 05:30 7,2 C 79 % 1016,5 hPa 0,0 l/m 10,1 km/h (2 Bft) W-NW 296 0 min 0,000 mm 0,0 UV-I 0 W/m 3,8 C 4,4 C 25,7 km/h (4 Bft) 99,03 %
03.02.2016 05:35 7,1 C 80 % 1016,5 hPa 0,0 l/m 9,8 km/h (2 Bft) W-SW 247 0 min 0,000 mm 0,0 UV-I 0 W/m 3,9 C 4,5 C 19,3 km/h (3 Bft) 99,19 %
03.02.2016 05:40 7,1 C 80 % 1016,5 hPa 0,0 l/m 11,7 km/h (2 Bft) W-SW 247 0 min 0,000 mm 0,0 UV-I 0 W/m 3,9 C 3,3 C 22,5 km/h (4 Bft) 100,00 %
03.02.2016 05:45 7,0 C 80 % 1016,6 hPa 0,0 l/m 12,1 km/h (2 Bft) W 268 0 min 0,000 mm 0,0 UV-I 0 W/m 3,8 C 3,0 C 24,1 km/h (4 Bft) 98,45 %
03.02.2016 05:50 6,9 C 81 % 1016,6 hPa 0,0 l/m 8,1 km/h (2 Bft) W-SW 257 0 min 0,000 mm 0,0 UV-I 0 W/m 3,9 C 5,5 C 20,9 km/h (4 Bft) 100,00 %
03.02.2016 05:55 6,9 C 80 % 1016,6 hPa 0,0 l/m 9,3 km/h (2 Bft) W 281 0 min 0,000 mm 0,0 UV-I 0 W/m 3,7 C 4,6 C 17,7 km/h (3 Bft) 98,39 %
03.02.2016 06:00 6,8 C 80 % 1016,6 hPa 0,0 l/m 8,5 km/h (2 Bft) W-NW 292 0 min 0,000 mm 0,0 UV-I 0 W/m 3,6 C 5,1 C 17,7 km/h (3 Bft) 99,07 %
03.02.2016 06:05 6,8 C 80 % 1016,5 hPa 0,0 l/m 7,3 km/h (2 Bft) W 276 0 min 0,026 mm 0,0 UV-I 0 W/m 3,6 C 6,1 C 16,1 km/h (3 Bft) 100,00 %
03.02.2016 06:10 6,8 C 80 % 1016,5 hPa 0,0 l/m 9,6 km/h (2 Bft) W-NW 289 0 min 0,000 mm 0,0 UV-I 0 W/m 3,6 C 4,3 C 27,4 km/h (4 Bft) 97,46 %
03.02.2016 06:15 6,8 C 79 % 1016,6 hPa 0,0 l/m 7,9 km/h (2 Bft) W-NW 282 0 min 0,000 mm 0,0 UV-I 0 W/m 3,4 C 5,6 C 14,5 km/h (3 Bft) 96,49 %
03.02.2016 06:20 6,9 C 79 % 1016,5 hPa 0,0 l/m 10,5 km/h (2 Bft) W-SW 255 0 min 0,000 mm 0,0 UV-I 0 W/m 3,5 C 3,8 C 22,5 km/h (4 Bft) 97,58 %
03.02.2016 06:25 6,9 C 79 % 1016,5 hPa 0,0 l/m 10,8 km/h (2 Bft) SW 236 0 min 0,000 mm 0,0 UV-I 0 W/m 3,5 C 3,7 C 19,3 km/h (3 Bft) 98,25 %
03.02.2016 06:30 6,9 C 79 % 1016,6 hPa 0,0 l/m 8,9 km/h (2 Bft) W 281 0 min 0,000 mm 0,0 UV-I 0 W/m 3,5 C 4,9 C 16,1 km/h (3 Bft) 96,61 %
03.02.2016 06:35 6,9 C 79 % 1016,6 hPa 0,0 l/m 8,0 km/h (2 Bft) W 267 0 min 0,000 mm 0,0 UV-I 0 W/m 3,5 C 5,6 C 17,7 km/h (3 Bft) 97,46 %
03.02.2016 06:40 6,9 C 79 % 1016,7 hPa 0,0 l/m 8,8 km/h (2 Bft) W 273 0 min 0,000 mm 0,0 UV-I 0 W/m 3,5 C 5,0 C 16,1 km/h (3 Bft) 98,25 %
03.02.2016 06:45 6,9 C 79 % 1016,7 hPa 0,0 l/m 11,6 km/h (2 Bft) W 267 0 min 0,000 mm 0,0 UV-I 0 W/m 3,5 C 3,2 C 22,5 km/h (4 Bft) 99,17 %
03.02.2016 06:50 6,8 C 78 % 1016,7 hPa 0,0 l/m 11,6 km/h (2 Bft) W-SW 246 0 min 0,000 mm 0,0 UV-I 0 W/m 3,2 C 3,1 C 20,9 km/h (4 Bft) 98,31 %
03.02.2016 06:55 6,7 C 78 % 1016,7 hPa 0,0 l/m 14,0 km/h (3 Bft) W 264 0 min 0,000 mm 0,0 UV-I 0 W/m 3,1 C 1,6 C 22,5 km/h (4 Bft) 100,00 %
03.02.2016 07:00 6,6 C 78 % 1016,7 hPa 0,0 l/m 10,1 km/h (2 Bft) W 267 0 min 0,025 mm 0,0 UV-I 0 W/m 3,0 C 3,8 C 17,7 km/h (3 Bft) 100,00 %
03.02.2016 07:05 6,6 C 77 % 1016,8 hPa 0,0 l/m 12,2 km/h (2 Bft) W 271 0 min 0,000 mm 0,0 UV-I 0 W/m 2,9 C 2,5 C 20,9 km/h (4 Bft) 97,37 %
03.02.2016 07:10 6,5 C 77 % 1016,8 hPa 0,0 l/m 12,5 km/h (3 Bft) W 270 0 min 0,000 mm 0,0 UV-I 0 W/m 2,8 C 2,2 C 19,3 km/h (3 Bft) 100,00 %
03.02.2016 07:15 6,4 C 78 % 1016,7 hPa 0,0 l/m 12,0 km/h (2 Bft) SW 223 0 min 0,000 mm 0,0 UV-I 0 W/m 2,8 C 2,4 C 22,5 km/h (4 Bft) 100,00 %
03.02.2016 07:20 6,2 C 79 % 1016,6 hPa 0,0 l/m 13,0 km/h (3 Bft) W 275 0 min 0,000 mm 0,0 UV-I 0 W/m 2,8 C 1,6 C 22,5 km/h (4 Bft) 99,07 %
03.02.2016 07:25 6,1 C 81 % 1016,4 hPa 0,0 l/m 9,5 km/h (2 Bft) W-SW 257 0 min 0,000 mm 0,0 UV-I 0 W/m 3,1 C 3,6 C 16,1 km/h (3 Bft) 99,15 %
03.02.2016 07:30 5,9 C 80 % 1016,4 hPa 0,0 l/m 13,0 km/h (3 Bft) SW 227 0 min 0,000 mm 0,0 UV-I 0 W/m 2,7 C 1,2 C 22,5 km/h (4 Bft) 100,00 %
03.02.2016 07:35 5,9 C 80 % 1016,4 hPa 0,0 l/m 10,5 km/h (2 Bft) W 269 0 min 0,000 mm 0,0 UV-I 0 W/m 2,7 C 2,7 C 22,5 km/h (4 Bft) 100,00 %
03.02.2016 07:40 5,9 C 79 % 1016,4 hPa 0,0 l/m 10,4 km/h (2 Bft) W 267 0 min 0,000 mm 0,0 UV-I 0 W/m 2,5 C 2,8 C 24,1 km/h (4 Bft) 100,00 %
03.02.2016 07:45 5,9 C 79 % 1016,3 hPa 0,0 l/m 8,0 km/h (2 Bft) W-SW 246 0 min 0,000 mm 0,0 UV-I 0 W/m 2,5 C 4,5 C 16,1 km/h (3 Bft) 100,00 %
03.02.2016 07:50 5,9 C 78 % 1016,3 hPa 0,0 l/m 10,0 km/h (2 Bft) W 263 0 min 0,000 mm 0,0 UV-I 0 W/m 2,4 C 3,1 C 16,1 km/h (3 Bft) 99,13 %
03.02.2016 07:55 5,9 C 77 % 1016,3 hPa 0,0 l/m 10,7 km/h (2 Bft) W-NW 289 0 min 0,000 mm 0,0 UV-I 0 W/m 2,2 C 2,6 C 17,7 km/h (3 Bft) 99,13 %
03.02.2016 08:00 5,9 C 78 % 1016,3 hPa 0,0 l/m 12,7 km/h (3 Bft) W 264 0 min 0,026 mm 0,0 UV-I 0 W/m 2,4 C 1,4 C 19,3 km/h (3 Bft) 99,17 %
03.02.2016 08:05 5,8 C 79 % 1016,1 hPa 0,0 l/m 9,0 km/h (2 Bft) W-SW 254 0 min 0,000 mm 0,0 UV-I 6 W/m 2,4 C 3,7 C 14,5 km/h (3 Bft) 99,15 %
03.02.2016 08:10 5,8 C 79 % 1016,1 hPa 0,0 l/m 8,3 km/h (2 Bft) W 264 0 min 0,000 mm 0,0 UV-I 8 W/m 2,4 C 4,2 C 14,5 km/h (3 Bft) 98,17 %
03.02.2016 08:15 5,8 C 78 % 1016,1 hPa 0,0 l/m 7,8 km/h (2 Bft) SW 236 0 min 0,000 mm 0,0 UV-I 9 W/m 2,3 C 4,6 C 12,9 km/h (3 Bft) 97,56 %
03.02.2016 08:20 5,8 C 79 % 1016,1 hPa 0,0 l/m 7,9 km/h (2 Bft) W 274 0 min 0,000 mm 0,0 UV-I 12 W/m 2,4 C 4,5 C 12,9 km/h (3 Bft) 97,58 %
03.02.2016 08:25 5,8 C 79 % 1016,1 hPa 0,0 l/m 7,3 km/h (2 Bft) SW 230 0 min 0,000 mm 0,0 UV-I 17 W/m 2,4 C 5,0 C 14,5 km/h (3 Bft) 97,25 %
03.02.2016 08:30 5,8 C 80 % 1016,1 hPa 0,0 l/m 7,8 km/h (2 Bft) SW 236 0 min 0,000 mm 0,0 UV-I 24 W/m 2,6 C 4,6 C 14,5 km/h (3 Bft) 97,30 %
03.02.2016 08:35 5,8 C 80 % 1016,1 hPa 0,0 l/m 6,1 km/h (2 Bft) SW 223 0 min 0,000 mm 0,0 UV-I 25 W/m 2,6 C 5,8 C 9,7 km/h (2 Bft) 97,58 %
03.02.2016 08:40 5,8 C 80 % 1016,0 hPa 0,0 l/m 6,0 km/h (2 Bft) S 190 0 min 0,000 mm 0,0 UV-I 22 W/m 2,6 C 5,8 C 11,3 km/h (2 Bft) 97,37 %
03.02.2016 08:45 5,8 C 80 % 1015,9 hPa 0,0 l/m 6,5 km/h (2 Bft) S-SW 200 0 min 0,000 mm 0,0 UV-I 20 W/m 2,6 C 5,7 C 11,3 km/h (2 Bft) 98,31 %
03.02.2016 08:50 5,8 C 80 % 1015,9 hPa 0,0 l/m 7,4 km/h (2 Bft) S-SW 202 0 min 0,000 mm 0,0 UV-I 19 W/m 2,6 C 4,9 C 12,9 km/h (3 Bft) 99,19 %
03.02.2016 08:55 5,8 C 80 % 1015,9 hPa 0,0 l/m 7,0 km/h (2 Bft) S-SW 194 0 min 0,000 mm 0,0 UV-I 22 W/m 2,6 C 5,3 C 11,3 km/h (2 Bft) 97,30 %
03.02.2016 09:00 5,8 C 79 % 1016,1 hPa 0,0 l/m 7,0 km/h (2 Bft) SW 225 0 min 0,025 mm 0,0 UV-I 23 W/m 2,4 C 5,3 C 11,3 km/h (2 Bft) 100,00 %
03.02.2016 09:05 5,8 C 80 % 1016,1 hPa 0,0 l/m 5,4 km/h (1 Bft) SW 225 0 min 0,000 mm 0,0 UV-I 24 W/m 2,6 C 5,8 C 9,7 km/h (2 Bft) 100,00 %
03.02.2016 09:10 5,7 C 81 % 1016,0 hPa 0,0 l/m 9,3 km/h (2 Bft) S 172 0 min 0,000 mm 0,0 UV-I 26 W/m 2,7 C 3,3 C 12,9 km/h (3 Bft) 99,15 %
03.02.2016 09:15 5,7 C 80 % 1015,9 hPa 0,0 l/m 8,7 km/h (2 Bft) S-SW 199 0 min 0,000 mm 0,0 UV-I 28 W/m 2,5 C 3,8 C 17,7 km/h (3 Bft) 99,17 %
03.02.2016 09:20 5,8 C 80 % 1015,9 hPa 0,0 l/m 11,5 km/h (2 Bft) SW 219 0 min 0,000 mm 0,0 UV-I 30 W/m 2,6 C 2,0 C 16,1 km/h (3 Bft) 99,15 %
03.02.2016 09:25 5,8 C 79 % 1015,9 hPa 0,0 l/m 8,4 km/h (2 Bft) SW 218 0 min 0,000 mm 0,0 UV-I 27 W/m 2,4 C 4,1 C 12,9 km/h (3 Bft) 100,00 %
03.02.2016 09:30 5,8 C 80 % 1016,0 hPa 0,0 l/m 8,9 km/h (2 Bft) W-SW 252 0 min 0,000 mm 0,0 UV-I 27 W/m 2,6 C 3,7 C 14,5 km/h (3 Bft) 99,08 %
03.02.2016 09:35 5,8 C 80 % 1016,3 hPa 0,0 l/m 9,9 km/h (2 Bft) SW 225 0 min 0,000 mm 0,0 UV-I 23 W/m 2,6 C 3,0 C 17,7 km/h (3 Bft) 99,19 %
03.02.2016 09:40 5,7 C 80 % 1016,3 hPa 0,0 l/m 10,9 km/h (2 Bft) W-SW 248 0 min 0,000 mm 0,0 UV-I 24 W/m 2,5 C 2,2 C 17,7 km/h (3 Bft) 99,13 %
03.02.2016 09:45 5,7 C 80 % 1016,4 hPa 0,0 l/m 10,2 km/h (2 Bft) SW 224 0 min 0,000 mm 0,0 UV-I 23 W/m 2,5 C 2,7 C 16,1 km/h (3 Bft) 98,11 %
03.02.2016 09:50 5,6 C 81 % 1016,4 hPa 0,0 l/m 9,1 km/h (2 Bft) W-SW 239 0 min 0,000 mm 0,0 UV-I 25 W/m 2,6 C 3,4 C 16,1 km/h (3 Bft) 98,52 %
03.02.2016 09:55 5,4 C 83 % 1016,4 hPa 0,0 l/m 9,1 km/h (2 Bft) W-SW 245 0 min 0,000 mm 0,0 UV-I 28 W/m 2,7 C 3,2 C 14,5 km/h (3 Bft) 100,00 %
03.02.2016 10:00 5,3 C 85 % 1016,4 hPa 0,0 l/m 7,2 km/h (2 Bft) W-SW 257 0 min 0,025 mm 0,0 UV-I 31 W/m 3,0 C 4,6 C 12,9 km/h (3 Bft) 99,07 %
03.02.2016 10:05 5,3 C 85 % 1016,3 hPa 0,0 l/m 6,6 km/h (2 Bft) SW 222 0 min 0,000 mm 0,0 UV-I 36 W/m 3,0 C 5,1 C 11,3 km/h (2 Bft) 100,00 %
03.02.2016 10:10 5,3 C 85 % 1016,5 hPa 0,0 l/m 8,3 km/h (2 Bft) W-SW 238 0 min 0,000 mm 0,0 UV-I 48 W/m 3,0 C 3,7 C 16,1 km/h (3 Bft) 99,17 %
03.02.2016 10:15 5,4 C 85 % 1016,4 hPa 0,0 l/m 9,4 km/h (2 Bft) SW 230 0 min 0,000 mm 0,0 UV-I 49 W/m 3,1 C 2,9 C 17,7 km/h (3 Bft) 96,49 %
03.02.2016 10:20 5,4 C 84 % 1016,5 hPa 0,0 l/m 7,8 km/h (2 Bft) S 188 0 min 0,000 mm 0,0 UV-I 50 W/m 2,9 C 4,2 C 20,9 km/h (4 Bft) 96,06 %
03.02.2016 10:25 5,4 C 84 % 1016,5 hPa 0,0 l/m 8,9 km/h (2 Bft) W-SW 251 0 min 0,000 mm 0,0 UV-I 43 W/m 2,9 C 3,3 C 16,1 km/h (3 Bft) 95,54 %
03.02.2016 10:30 5,4 C 83 % 1016,5 hPa 0,0 l/m 8,0 km/h (2 Bft) S-SW 196 0 min 0,000 mm 0,0 UV-I 41 W/m 2,7 C 4,0 C 17,7 km/h (3 Bft) 97,30 %
03.02.2016 10:35 5,5 C 81 % 1016,5 hPa 0,0 l/m 9,5 km/h (2 Bft) W-SW 242 0 min 0,000 mm 0,0 UV-I 35 W/m 2,5 C 3,0 C 17,7 km/h (3 Bft) 97,64 %
03.02.2016 10:40 5,5 C 80 % 1016,4 hPa 0,0 l/m 10,2 km/h (2 Bft) SW 221 0 min 0,000 mm 0,0 UV-I 35 W/m 2,3 C 2,5 C 19,3 km/h (3 Bft) 95,15 %
03.02.2016 10:45 5,6 C 80 % 1016,4 hPa 0,0 l/m 8,9 km/h (2 Bft) SW 224 0 min 0,000 mm 0,0 UV-I 39 W/m 2,4 C 3,5 C 14,5 km/h (3 Bft) 98,45 %
03.02.2016 10:50 5,5 C 81 % 1016,4 hPa 0,0 l/m 8,0 km/h (2 Bft) SW 214 0 min 0,000 mm 0,0 UV-I 39 W/m 2,5 C 4,1 C 12,9 km/h (3 Bft) 98,26 %
03.02.2016 10:55 5,5 C 81 % 1016,5 hPa 0,0 l/m 10,1 km/h (2 Bft) W-SW 244 0 min 0,000 mm 0,0 UV-I 37 W/m 2,5 C 2,6 C 16,1 km/h (3 Bft) 100,00 %
03.02.2016 11:00 5,4 C 82 % 1016,5 hPa 0,0 l/m 9,0 km/h (2 Bft) SW 215 0 min 0,026 mm 0,0 UV-I 35 W/m 2,6 C 3,2 C 16,1 km/h (3 Bft) 99,08 %
03.02.2016 11:05 5,4 C 82 % 1016,6 hPa 0,2 l/m 8,4 km/h (2 Bft) W-SW 251 0 min 0,000 mm 0,0 UV-I 35 W/m 2,6 C 3,7 C 16,1 km/h (3 Bft) 100,00 %
03.02.2016 11:10 5,3 C 81 % 1016,6 hPa 0,0 l/m 14,5 km/h (3 Bft) W-SW 247 0 min 0,000 mm 0,0 UV-I 33 W/m 2,3 C -0,3 C 24,1 km/h (4 Bft) 98,25 %
03.02.2016 11:15 5,1 C 83 % 1016,7 hPa 0,0 l/m 9,7 km/h (2 Bft) W-SW 247 0 min 0,000 mm 0,0 UV-I 30 W/m 2,5 C 2,4 C 16,1 km/h (3 Bft) 97,37 %
03.02.2016 11:20 4,9 C 85 % 1016,7 hPa 0,0 l/m 9,7 km/h (2 Bft) W 270 0 min 0,000 mm 0,0 UV-I 34 W/m 2,6 C 2,2 C 17,7 km/h (3 Bft) 97,37 %
03.02.2016 11:25 4,9 C 86 % 1016,8 hPa 0,2 l/m 11,3 km/h (2 Bft) W-SW 247 0 min 0,000 mm 0,0 UV-I 28 W/m 2,8 C 1,1 C 17,7 km/h (3 Bft) 99,12 %
03.02.2016 11:30 4,7 C 86 % 1016,8 hPa 0,2 l/m 14,5 km/h (3 Bft) SW 225 0 min 0,000 mm 0,0 UV-I 31 W/m 2,6 C -1,0 C 22,5 km/h (4 Bft) 100,00 %
03.02.2016 11:35 4,6 C 87 % 1016,8 hPa 0,0 l/m 12,9 km/h (3 Bft) SW 225 0 min 0,000 mm 0,0 UV-I 27 W/m 2,6 C -0,2 C 24,1 km/h (4 Bft) 100,00 %
03.02.2016 11:40 4,3 C 88 % 1016,9 hPa 0,2 l/m 14,5 km/h (3 Bft) SW 225 0 min 0,000 mm 0,0 UV-I 20 W/m 2,5 C -1,5 C 27,4 km/h (4 Bft) 100,00 %
03.02.2016 11:45 4,1 C 88 % 1016,9 hPa 0,2 l/m 14,5 km/h (3 Bft) W-SW 247 0 min 0,000 mm 0,0 UV-I 27 W/m 2,3 C -1,7 C 25,7 km/h (4 Bft) 100,00 %
03.02.2016 11:50 3,8 C 89 % 1016,9 hPa 0,2 l/m 14,5 km/h (3 Bft) SW 225 0 min 0,000 mm 0,0 UV-I 33 W/m 2,2 C -2,1 C 25,7 km/h (4 Bft) 100,00 %
03.02.2016 11:55 3,7 C 90 % 1016,9 hPa 0,2 l/m 11,3 km/h (2 Bft) W-SW 247 0 min 0,000 mm 0,0 UV-I 35 W/m 2,2 C -0,3 C 20,9 km/h (4 Bft) 100,00 %
03.02.2016 12:00 3,6 C 91 % 1016,9 hPa 0,2 l/m 11,3 km/h (2 Bft) W-SW 247 0 min 0,025 mm 0,0 UV-I 36 W/m 2,3 C -0,4 C 17,7 km/h (3 Bft) 99,12 %
03.02.2016 12:05 3,6 C 92 % 1016,8 hPa 0,0 l/m 8,0 km/h (2 Bft) W-SW 247 0 min 0,000 mm 0,0 UV-I 36 W/m 2,4 C 2,1 C 14,5 km/h (3 Bft) 100,00 %
03.02.2016 12:10 3,6 C 91 % 1016,7 hPa 0,2 l/m 12,9 km/h (3 Bft) SW 225 0 min 0,000 mm 0,0 UV-I 39 W/m 2,3 C -1,4 C 22,5 km/h (4 Bft) 100,00 %
03.02.2016 12:15 3,5 C 92 % 1016,7 hPa 0,2 l/m 11,3 km/h (2 Bft) SW 225 0 min 0,000 mm 0,0 UV-I 39 W/m 2,3 C -0,5 C 19,3 km/h (3 Bft) 99,12 %
03.02.2016 12:20 3,5 C 92 % 1016,7 hPa 0,0 l/m 11,3 km/h (2 Bft) W-SW 247 0 min 0,000 mm 0,0 UV-I 40 W/m 2,3 C -0,5 C 22,5 km/h (4 Bft) 100,00 %
03.02.2016 12:25 3,6 C 92 % 1016,6 hPa 0,2 l/m 8,0 km/h (2 Bft) SW 225 0 min 0,000 mm 0,0 UV-I 40 W/m 2,4 C 2,1 C 16,1 km/h (3 Bft) 100,00 %
03.02.2016 12:30 3,6 C 93 % 1016,5 hPa 0,0 l/m 11,3 km/h (2 Bft) SW 225 0 min 0,000 mm 0,0 UV-I 38 W/m 2,6 C -0,4 C 20,9 km/h (4 Bft) 100,00 %
03.02.2016 12:35 3,7 C 93 % 1016,5 hPa 0,0 l/m 11,3 km/h (2 Bft) SW 225 0 min 0,000 mm 0,0 UV-I 39 W/m 2,7 C -0,3 C 20,9 km/h (4 Bft) 99,12 %
03.02.2016 12:40 3,6 C 93 % 1016,5 hPa 0,2 l/m 12,9 km/h (3 Bft) SW 225 0 min 0,000 mm 0,0 UV-I 38 W/m 2,6 C -1,4 C 20,9 km/h (4 Bft) 99,12 %
03.02.2016 12:45 3,6 C 92 % 1016,4 hPa 0,2 l/m 14,5 km/h (3 Bft) SW 225 0 min 0,000 mm 0,0 UV-I 40 W/m 2,4 C -2,3 C 22,5 km/h (4 Bft) 100,00 %
03.02.2016 12:50 3,6 C 92 % 1016,3 hPa 0,0 l/m 12,9 km/h (3 Bft) SW 225 0 min 0,000 mm 0,0 UV-I 44 W/m 2,4 C -1,4 C 22,5 km/h (4 Bft) 99,12 %
03.02.2016 12:55 3,6 C 92 % 1016,4 hPa 0,0 l/m 11,3 km/h (2 Bft) SW 225 0 min 0,000 mm 0,0 UV-I 47 W/m 2,4 C -0,4 C 19,3 km/h (3 Bft) 97,37 %
03.02.2016 13:00 3,6 C 92 % 1016,3 hPa 0,2 l/m 12,9 km/h (3 Bft) SW 225 0 min 0,025 mm 0,0 UV-I 45 W/m 2,4 C -1,4 C 22,5 km/h (4 Bft) 96,49 %
03.02.2016 13:05 3,5 C 93 % 1016,2 hPa 0,0 l/m 11,3 km/h (2 Bft) SW 225 0 min 0,000 mm 0,0 UV-I 43 W/m 2,5 C -0,5 C 20,9 km/h (4 Bft) 98,25 %
03.02.2016 13:10 3,4 C 93 % 1016,1 hPa 0,2 l/m 9,7 km/h (2 Bft) SW 225 0 min 0,000 mm 0,0 UV-I 40 W/m 2,4 C 0,5 C 19,3 km/h (3 Bft) 96,49 %
03.02.2016 13:15 3,4 C 93 % 1016,1 hPa 0,0 l/m 11,3 km/h (2 Bft) SW 225 0 min 0,000 mm 0,0 UV-I 40 W/m 2,4 C -0,6 C 19,3 km/h (3 Bft) 97,37 %
03.02.2016 13:20 3,3 C 93 % 1016,4 hPa 0,2 l/m 12,9 km/h (3 Bft) SW 225 0 min 0,000 mm 0,0 UV-I 35 W/m 2,3 C -1,8 C 22,5 km/h (4 Bft) 98,25 %
03.02.2016 13:25 3,2 C 93 % 1016,3 hPa 0,2 l/m 12,6 km/h (3 Bft) SW 230 0 min 0,001 mm 0,0 UV-I 35 W/m 2,2 C -1,7 C 20,9 km/h (4 Bft) 100,00 %
03.02.2016 13:30 3,1 C 93 % 1016,5 hPa 0,2 l/m 14,7 km/h (3 Bft) W-SW 242 0 min 0,000 mm 0,0 UV-I 35 W/m 2,1 C -3,1 C 22,5 km/h (4 Bft) 100,00 %
03.02.2016 13:35 3,0 C 93 % 1016,3 hPa 0,2 l/m 17,1 km/h (3 Bft) W-NW 283 0 min 0,000 mm 0,0 UV-I 35 W/m 2,0 C -4,4 C 27,4 km/h (4 Bft) 99,11 %
03.02.2016 13:40 2,9 C 93 % 1016,4 hPa 0,2 l/m 12,9 km/h (3 Bft) SW 217 0 min 0,000 mm 0,0 UV-I 33 W/m 1,9 C -2,2 C 19,3 km/h (3 Bft) 100,00 %
03.02.2016 13:45 2,9 C 94 % 1016,4 hPa 0,0 l/m 8,9 km/h (2 Bft) SW 225 0 min 0,000 mm 0,0 UV-I 28 W/m 2,0 C 0,6 C 17,7 km/h (3 Bft) 99,19 %
03.02.2016 13:50 2,9 C 94 % 1016,4 hPa 0,2 l/m 11,5 km/h (2 Bft) W-SW 238 0 min 0,000 mm 0,0 UV-I 31 W/m 2,0 C -1,3 C 17,7 km/h (3 Bft) 100,00 %
03.02.2016 13:55 2,9 C 94 % 1016,4 hPa 0,2 l/m 12,4 km/h (3 Bft) W-SW 252 0 min 0,000 mm 0,0 UV-I 32 W/m 2,0 C -1,9 C 19,3 km/h (3 Bft) 99,19 %
03.02.2016 14:00 2,8 C 94 % 1016,4 hPa 0,0 l/m 13,7 km/h (3 Bft) W-SW 237 0 min 0,025 mm 0,0 UV-I 31 W/m 1,9 C -2,8 C 20,9 km/h (4 Bft) 99,17 %
03.02.2016 14:05 2,8 C 95 % 1016,4 hPa 0,2 l/m 12,0 km/h (2 Bft) W-SW 244 0 min 0,000 mm 0,0 UV-I 34 W/m 2,1 C -1,8 C 22,5 km/h (4 Bft) 96,58 %
03.02.2016 14:10 2,8 C 94 % 1016,5 hPa 0,0 l/m 12,4 km/h (3 Bft) W-SW 252 0 min 0,000 mm 0,0 UV-I 34 W/m 1,9 C -2,0 C 20,9 km/h (4 Bft) 98,17 %
03.02.2016 14:15 2,8 C 94 % 1016,5 hPa 0,0 l/m 13,1 km/h (3 Bft) W-SW 244 0 min 0,000 mm 0,0 UV-I 38 W/m 1,9 C -2,5 C 20,9 km/h (4 Bft) 100,00 %
03.02.2016 14:20 2,8 C 94 % 1016,5 hPa 0,0 l/m 10,1 km/h (2 Bft) W 273 0 min 0,000 mm 0,0 UV-I 34 W/m 1,9 C -0,4 C 14,5 km/h (3 Bft) 98,37 %
03.02.2016 14:25 2,8 C 94 % 1016,6 hPa 0,2 l/m 12,0 km/h (2 Bft) SW 223 0 min 0,000 mm 0,0 UV-I 35 W/m 1,9 C -1,8 C 19,3 km/h (3 Bft) 95,04 %
03.02.2016 14:30 2,8 C 95 % 1016,6 hPa 0,0 l/m 9,0 km/h (2 Bft) SW 227 0 min 0,000 mm 0,0 UV-I 33 W/m 2,1 C 0,4 C 14,5 km/h (3 Bft) 96,58 %
03.02.2016 14:35 2,8 C 95 % 1016,6 hPa 0,0 l/m 10,2 km/h (2 Bft) W 267 0 min 0,000 mm 0,0 UV-I 34 W/m 2,1 C -0,5 C 19,3 km/h (3 Bft) 97,25 %
03.02.2016 14:40 2,8 C 95 % 1016,6 hPa 0,2 l/m 10,4 km/h (2 Bft) SW 227 0 min 0,000 mm 0,0 UV-I 33 W/m 2,1 C -0,7 C 17,7 km/h (3 Bft) 97,46 %
03.02.2016 14:45 2,8 C 94 % 1016,6 hPa 0,0 l/m 11,1 km/h (2 Bft) W-SW 254 0 min 0,000 mm 0,0 UV-I 32 W/m 1,9 C -1,2 C 17,7 km/h (3 Bft) 96,49 %
03.02.2016 14:50 2,8 C 95 % 1016,6 hPa 0,0 l/m 7,8 km/h (2 Bft) W-SW 239 0 min 0,000 mm 0,0 UV-I 28 W/m 2,1 C 1,5 C 14,5 km/h (3 Bft) 96,61 %
03.02.2016 14:55 2,7 C 94 % 1016,6 hPa 0,0 l/m 12,1 km/h (2 Bft) W-SW 257 0 min 0,000 mm 0,0 UV-I 28 W/m 1,8 C -2,0 C 19,3 km/h (3 Bft) 97,52 %
03.02.2016 15:00 2,7 C 95 % 1016,6 hPa 0,2 l/m 11,7 km/h (2 Bft) W 260 0 min 0,025 mm 0,0 UV-I 28 W/m 2,0 C -1,7 C 19,3 km/h (3 Bft) 98,33 %
03.02.2016 15:05 2,7 C 95 % 1016,7 hPa 0,0 l/m 9,6 km/h (2 Bft) S-SW 195 0 min 0,000 mm 0,0 UV-I 26 W/m 2,0 C -0,2 C 19,3 km/h (3 Bft) 100,00 %
03.02.2016 15:10 2,7 C 95 % 1016,6 hPa 0,0 l/m 10,7 km/h (2 Bft) SW 221 0 min 0,000 mm 0,0 UV-I 26 W/m 2,0 C -1,0 C 16,1 km/h (3 Bft) 98,17 %
03.02.2016 15:15 2,7 C 95 % 1016,6 hPa 0,2 l/m 8,5 km/h (2 Bft) SW 230 0 min 0,000 mm 0,0 UV-I 27 W/m 2,0 C 0,7 C 16,1 km/h (3 Bft) 100,00 %
03.02.2016 15:20 2,7 C 95 % 1016,6 hPa 0,0 l/m 10,8 km/h (2 Bft) SW 216 0 min 0,000 mm 0,0 UV-I 28 W/m 2,0 C -1,1 C 19,3 km/h (3 Bft) 98,46 %
03.02.2016 15:25 2,8 C 95 % 1016,5 hPa 0,0 l/m 10,0 km/h (2 Bft) SW 223 0 min 0,000 mm 0,0 UV-I 29 W/m 2,1 C -0,4 C 16,1 km/h (3 Bft) 100,00 %
03.02.2016 15:30 2,7 C 95 % 1016,5 hPa 0,0 l/m 9,9 km/h (2 Bft) W-SW 237 0 min 0,000 mm 0,0 UV-I 26 W/m 2,0 C -0,4 C 17,7 km/h (3 Bft) 100,00 %
03.02.2016 15:35 2,8 C 95 % 1016,5 hPa 0,0 l/m 9,8 km/h (2 Bft) SW 236 0 min 0,000 mm 0,0 UV-I 26 W/m 2,1 C -0,2 C 20,9 km/h (4 Bft) 100,00 %
03.02.2016 15:40 2,8 C 95 % 1016,5 hPa 0,0 l/m 11,2 km/h (2 Bft) SW 229 0 min 0,000 mm 0,0 UV-I 25 W/m 2,1 C -1,2 C 20,9 km/h (4 Bft) 99,12 %
03.02.2016 15:45 2,8 C 95 % 1016,5 hPa 0,0 l/m 8,6 km/h (2 Bft) W-SW 244 0 min 0,000 mm 0,0 UV-I 22 W/m 2,1 C 0,8 C 17,7 km/h (3 Bft) 100,00 %
03.02.2016 15:50 2,8 C 95 % 1016,6 hPa 0,2 l/m 11,0 km/h (2 Bft) W-SW 241 0 min 0,000 mm 0,0 UV-I 18 W/m 2,1 C -1,1 C 19,3 km/h (3 Bft) 99,13 %
03.02.2016 15:55 2,8 C 94 % 1016,5 hPa 0,0 l/m 10,4 km/h (2 Bft) SW 231 0 min 0,000 mm 0,0 UV-I 17 W/m 1,9 C -0,7 C 20,9 km/h (4 Bft) 98,37 %
03.02.2016 16:00 2,8 C 94 % 1016,6 hPa 0,0 l/m 11,0 km/h (2 Bft) W-SW 239 0 min 0,000 mm 0,0 UV-I 16 W/m 1,9 C -1,1 C 17,7 km/h (3 Bft) 99,08 %
03.02.2016 16:05 2,8 C 94 % 1016,6 hPa 0,0 l/m 11,9 km/h (2 Bft) W-SW 239 0 min 0,026 mm 0,0 UV-I 16 W/m 1,9 C -1,7 C 25,7 km/h (4 Bft) 100,00 %
03.02.2016 16:10 2,8 C 94 % 1016,5 hPa 0,0 l/m 14,2 km/h (3 Bft) S-SW 203 0 min 0,000 mm 0,0 UV-I 13 W/m 1,9 C -3,1 C 22,5 km/h (4 Bft) 99,15 %
03.02.2016 16:15 2,8 C 94 % 1016,5 hPa 0,0 l/m 12,4 km/h (3 Bft) S-SW 202 0 min 0,000 mm 0,0 UV-I 12 W/m 1,9 C -2,0 C 22,5 km/h (4 Bft) 99,15 %
03.02.2016 16:20 2,8 C 94 % 1016,4 hPa 0,0 l/m 15,7 km/h (3 Bft) S-SW 207 0 min 0,000 mm 0,0 UV-I 11 W/m 1,9 C -4,0 C 22,5 km/h (4 Bft) 99,15 %
03.02.2016 16:25 2,8 C 95 % 1016,4 hPa 0,2 l/m 10,9 km/h (2 Bft) W-SW 257 0 min 0,000 mm 0,0 UV-I 11 W/m 2,1 C -1,0 C 19,3 km/h (3 Bft) 98,43 %
03.02.2016 16:30 2,8 C 94 % 1016,5 hPa 0,0 l/m 15,5 km/h (3 Bft) W-SW 243 0 min 0,000 mm 0,0 UV-I 11 W/m 1,9 C -3,9 C 20,9 km/h (4 Bft) 98,00 %
03.02.2016 16:40 2,8 C 94 % 1016,5 hPa 0,0 l/m 15,5 km/h (3 Bft) SW 224 0 min 0,000 mm 0,0 UV-I 7 W/m 1,9 C -3,9 C 24,1 km/h (4 Bft) 97,61 %
03.02.2016 16:45 2,8 C 94 % 1016,6 hPa 0,0 l/m 15,8 km/h (3 Bft) SW 222 0 min 0,000 mm 0,0 UV-I 6 W/m 1,9 C -4,0 C 27,4 km/h (4 Bft) 97,50 %
03.02.2016 16:50 2,8 C 94 % 1016,5 hPa 0,0 l/m 13,9 km/h (3 Bft) W 259 0 min 0,000 mm 0,0 UV-I 3 W/m 1,9 C -3,0 C 22,5 km/h (4 Bft) 93,04 %
03.02.2016 16:55 2,8 C 94 % 1016,4 hPa 0,0 l/m 13,7 km/h (3 Bft) SW 234 0 min 0,000 mm 0,0 UV-I 0 W/m 1,9 C -2,8 C 22,5 km/h (4 Bft) 95,54 %
03.02.2016 17:00 2,8 C 94 % 1016,4 hPa 0,0 l/m 13,8 km/h (3 Bft) SW 219 0 min 0,000 mm 0,0 UV-I 0 W/m 1,9 C -2,9 C 24,1 km/h (4 Bft) 98,41 %
03.02.2016 17:05 2,7 C 94 % 1016,3 hPa 0,0 l/m 11,4 km/h (2 Bft) W-NW 283 0 min 0,000 mm 0,0 UV-I 0 W/m 1,8 C -1,5 C 19,3 km/h (3 Bft) 99,11 %
03.02.2016 17:10 2,7 C 94 % 1016,4 hPa 0,0 l/m 12,7 km/h (3 Bft) W-SW 258 0 min 0,000 mm 0,0 UV-I 0 W/m 1,8 C -2,3 C 19,3 km/h (3 Bft) 99,13 %
03.02.2016 17:15 2,7 C 94 % 1016,3 hPa 0,0 l/m 12,0 km/h (2 Bft) W-SW 253 0 min 0,000 mm 0,0 UV-I 0 W/m 1,8 C -1,9 C 19,3 km/h (3 Bft) 98,29 %
03.02.2016 17:20 2,7 C 94 % 1016,4 hPa 0,0 l/m 12,2 km/h (2 Bft) SW 224 0 min 0,000 mm 0,0 UV-I 0 W/m 1,8 C -2,0 C 17,7 km/h (3 Bft) 98,39 %
03.02.2016 17:25 2,7 C 94 % 1016,4 hPa 0,0 l/m 10,6 km/h (2 Bft) SW 223 0 min 0,000 mm 0,0 UV-I 0 W/m 1,8 C -0,9 C 19,3 km/h (3 Bft) 100,00 %
03.02.2016 17:30 2,7 C 94 % 1016,4 hPa 0,0 l/m 10,9 km/h (2 Bft) SW 223 0 min 0,000 mm 0,0 UV-I 0 W/m 1,8 C -1,1 C 16,1 km/h (3 Bft) 100,00 %
03.02.2016 17:40 2,7 C 94 % 1016,6 hPa 0,2 l/m 9,7 km/h (2 Bft) SW 235 0 min 0,000 mm 0,0 UV-I 0 W/m 1,8 C -0,2 C 19,3 km/h (3 Bft) 99,09 %
03.02.2016 17:45 2,7 C 94 % 1016,7 hPa 0,0 l/m 13,1 km/h (3 Bft) SW 232 0 min 0,000 mm 0,0 UV-I 0 W/m 1,8 C -2,6 C 20,9 km/h (4 Bft) 99,11 %
03.02.2016 17:50 2,7 C 94 % 1016,6 hPa 0,0 l/m 14,4 km/h (3 Bft) SW 236 0 min 0,000 mm 0,0 UV-I 0 W/m 1,8 C -3,4 C 25,7 km/h (4 Bft) 98,41 %
03.02.2016 17:55 2,8 C 94 % 1016,8 hPa 0,0 l/m 12,8 km/h (3 Bft) SW 223 0 min 0,000 mm 0,0 UV-I 0 W/m 1,9 C -2,3 C 24,1 km/h (4 Bft) 99,03 %
03.02.2016 18:00 2,8 C 94 % 1016,7 hPa 0,0 l/m 16,3 km/h (3 Bft) SW 218 0 min 0,000 mm 0,0 UV-I 0 W/m 1,9 C -4,3 C 27,4 km/h (4 Bft) 100,00 %
03.02.2016 18:05 2,8 C 94 % 1016,8 hPa 0,0 l/m 13,3 km/h (3 Bft) W-SW 252 0 min 0,000 mm 0,0 UV-I 0 W/m 1,9 C -2,6 C 22,5 km/h (4 Bft) 99,13 %
03.02.2016 18:10 2,8 C 94 % 1016,8 hPa 0,0 l/m 12,3 km/h (3 Bft) SW 231 0 min 0,000 mm 0,0 UV-I 0 W/m 1,9 C -2,0 C 20,9 km/h (4 Bft) 99,21 %
03.02.2016 18:15 2,8 C 94 % 1016,8 hPa 0,0 l/m 15,5 km/h (3 Bft) SW 230 0 min 0,000 mm 0,0 UV-I 0 W/m 1,9 C -3,9 C 25,7 km/h (4 Bft) 98,35 %
03.02.2016 18:20 2,8 C 94 % 1016,9 hPa 0,0 l/m 16,1 km/h (3 Bft) SW 231 0 min 0,000 mm 0,0 UV-I 0 W/m 1,9 C -4,2 C 27,4 km/h (4 Bft) 100,00 %
03.02.2016 18:25 2,9 C 94 % 1017,0 hPa 0,0 l/m 13,4 km/h (3 Bft) W-SW 238 0 min 0,000 mm 0,0 UV-I 0 W/m 2,0 C -2,5 C 24,1 km/h (4 Bft) 99,19 %
03.02.2016 18:30 2,8 C 94 % 1017,2 hPa 0,0 l/m 14,4 km/h (3 Bft) SW 216 0 min 0,000 mm 0,0 UV-I 0 W/m 1,9 C -3,3 C 22,5 km/h (4 Bft) 99,15 %
03.02.2016 18:35 2,8 C 94 % 1017,3 hPa 0,0 l/m 16,2 km/h (3 Bft) SW 227 0 min 0,000 mm 0,0 UV-I 0 W/m 1,9 C -4,2 C 25,7 km/h (4 Bft) 97,17 %
03.02.2016 18:40 2,8 C 94 % 1017,4 hPa 0,0 l/m 15,3 km/h (3 Bft) W-SW 258 0 min 0,000 mm 0,0 UV-I 0 W/m 1,9 C -3,8 C 22,5 km/h (4 Bft) 96,69 %
03.02.2016 18:45 2,8 C 94 % 1017,1 hPa 0,0 l/m 13,1 km/h (3 Bft) SW 230 0 min 0,000 mm 0,0 UV-I 0 W/m 1,9 C -2,5 C 20,9 km/h (4 Bft) 97,32 %
03.02.2016 18:50 2,8 C 94 % 1017,3 hPa 0,0 l/m 11,8 km/h (2 Bft) SW 231 0 min 0,000 mm 0,0 UV-I 0 W/m 1,9 C -1,6 C 17,7 km/h (3 Bft) 97,56 %
03.02.2016 18:55 2,8 C 94 % 1017,3 hPa 0,0 l/m 14,4 km/h (3 Bft) W-SW 250 0 min 0,000 mm 0,0 UV-I 0 W/m 1,9 C -3,3 C 25,7 km/h (4 Bft) 96,69 %
03.02.2016 19:00 2,8 C 95 % 1017,2 hPa 0,0 l/m 13,8 km/h (3 Bft) W 278 0 min 0,000 mm 0,0 UV-I 0 W/m 2,1 C -2,9 C 20,9 km/h (4 Bft) 97,94 %
03.02.2016 19:05 2,8 C 95 % 1017,2 hPa 0,0 l/m 11,6 km/h (2 Bft) S-SW 194 0 min 0,000 mm 0,0 UV-I 0 W/m 2,1 C -1,5 C 17,7 km/h (3 Bft) 96,21 %
03.02.2016 19:10 2,8 C 94 % 1017,4 hPa 0,0 l/m 11,3 km/h (2 Bft) S-SW 213 0 min 0,000 mm 0,0 UV-I 0 W/m 1,9 C -1,3 C 17,7 km/h (3 Bft) 99,16 %
03.02.2016 19:15 2,9 C 94 % 1017,3 hPa 0,0 l/m 10,9 km/h (2 Bft) W-SW 250 0 min 0,000 mm 0,0 UV-I 0 W/m 2,0 C -0,9 C 17,7 km/h (3 Bft) 99,15 %
03.02.2016 19:20 2,8 C 94 % 1017,3 hPa 0,0 l/m 9,2 km/h (2 Bft) W-SW 252 0 min 0,000 mm 0,0 UV-I 0 W/m 1,9 C 0,3 C 16,1 km/h (3 Bft) 96,52 %
03.02.2016 19:25 2,9 C 94 % 1017,5 hPa 0,0 l/m 10,5 km/h (2 Bft) SW 218 0 min 0,000 mm 0,0 UV-I 0 W/m 2,0 C -0,6 C 19,3 km/h (3 Bft) 98,21 %
03.02.2016 19:30 2,9 C 94 % 1017,5 hPa 0,0 l/m 12,6 km/h (3 Bft) SW 220 0 min 0,000 mm 0,0 UV-I 0 W/m 2,0 C -2,1 C 20,9 km/h (4 Bft) 99,21 %
03.02.2016 19:35 2,9 C 94 % 1017,5 hPa 0,0 l/m 12,8 km/h (3 Bft) W-SW 255 0 min 0,000 mm 0,0 UV-I 0 W/m 2,0 C -2,2 C 20,9 km/h (4 Bft) 100,00 %
03.02.2016 19:40 2,9 C 94 % 1017,5 hPa 0,0 l/m 12,4 km/h (3 Bft) W-SW 245 0 min 0,000 mm 0,0 UV-I 0 W/m 2,0 C -1,9 C 17,7 km/h (3 Bft) 99,17 %
03.02.2016 19:45 2,9 C 94 % 1017,6 hPa 0,0 l/m 13,3 km/h (3 Bft) W-SW 248 0 min 0,000 mm 0,0 UV-I 0 W/m 2,0 C -2,5 C 20,9 km/h (4 Bft) 99,19 %
03.02.2016 19:50 3,0 C 94 % 1017,7 hPa 0,0 l/m 12,1 km/h (2 Bft) SW 222 0 min 0,000 mm 0,0 UV-I 0 W/m 2,1 C -1,6 C 27,4 km/h (4 Bft) 100,00 %
03.02.2016 19:55 3,0 C 94 % 1017,8 hPa 0,0 l/m 13,0 km/h (3 Bft) W-SW 253 0 min 0,000 mm 0,0 UV-I 0 W/m 2,1 C -2,2 C 24,1 km/h (4 Bft) 98,21 %
03.02.2016 20:00 3,0 C 94 % 1017,9 hPa 0,0 l/m 12,2 km/h (2 Bft) SW 232 0 min 0,000 mm 0,0 UV-I 0 W/m 2,1 C -1,7 C 24,1 km/h (4 Bft) 99,21 %
03.02.2016 20:05 3,0 C 94 % 1017,9 hPa 0,0 l/m 12,8 km/h (3 Bft) W-SW 240 0 min 0,000 mm 0,0 UV-I 0 W/m 2,1 C -2,1 C 20,9 km/h (4 Bft) 100,00 %
03.02.2016 20:10 2,9 C 94 % 1017,8 hPa 0,0 l/m 12,7 km/h (3 Bft) W-SW 254 0 min 0,000 mm 0,0 UV-I 0 W/m 2,0 C -2,1 C 19,3 km/h (3 Bft) 100,00 %
03.02.2016 20:15 2,9 C 94 % 1017,7 hPa 0,0 l/m 13,4 km/h (3 Bft) SW 236 0 min 0,000 mm 0,0 UV-I 0 W/m 2,0 C -2,5 C 20,9 km/h (4 Bft) 100,00 %
03.02.2016 20:20 2,9 C 94 % 1017,8 hPa 0,0 l/m 13,4 km/h (3 Bft) W-SW 255 0 min 0,000 mm 0,0 UV-I 0 W/m 2,0 C -2,5 C 20,9 km/h (4 Bft) 100,00 %
03.02.2016 20:25 2,9 C 94 % 1017,9 hPa 0,0 l/m 11,9 km/h (2 Bft) W-SW 258 0 min 0,000 mm 0,0 UV-I 0 W/m 2,0 C -1,6 C 20,9 km/h (4 Bft) 100,00 %
03.02.2016 20:30 2,9 C 95 % 1018,0 hPa 0,0 l/m 12,5 km/h (3 Bft) W-SW 249 0 min 0,000 mm 0,0 UV-I 0 W/m 2,2 C -2,0 C 17,7 km/h (3 Bft) 100,00 %
03.02.2016 20:35 2,9 C 95 % 1018,2 hPa 0,0 l/m 10,8 km/h (2 Bft) W-SW 240 0 min 0,000 mm 0,0 UV-I 0 W/m 2,2 C -0,8 C 17,7 km/h (3 Bft) 98,45 %
03.02.2016 20:40 2,9 C 95 % 1018,5 hPa 0,0 l/m 10,0 km/h (2 Bft) SW 216 0 min 0,000 mm 0,0 UV-I 0 W/m 2,2 C -0,2 C 17,7 km/h (3 Bft) 98,17 %
03.02.2016 20:45 2,9 C 94 % 1018,6 hPa 0,0 l/m 11,1 km/h (2 Bft) S 173 0 min 0,000 mm 0,0 UV-I 0 W/m 2,0 C -1,0 C 19,3 km/h (3 Bft) 97,44 %
03.02.2016 20:50 2,9 C 94 % 1018,7 hPa 0,0 l/m 12,7 km/h (3 Bft) SW 233 0 min 0,000 mm 0,0 UV-I 0 W/m 2,0 C -2,1 C 20,9 km/h (4 Bft) 97,58 %
03.02.2016 20:55 2,9 C 94 % 1018,8 hPa 0,0 l/m 11,2 km/h (2 Bft) SW 220 0 min 0,000 mm 0,0 UV-I 0 W/m 2,0 C -1,1 C 17,7 km/h (3 Bft) 96,69 %
03.02.2016 21:00 2,9 C 95 % 1018,9 hPa 0,0 l/m 11,8 km/h (2 Bft) SW 223 0 min 0,000 mm 0,0 UV-I 0 W/m 2,2 C -1,5 C 17,7 km/h (3 Bft) 98,15 %
03.02.2016 21:05 2,9 C 95 % 1018,9 hPa 0,0 l/m 11,2 km/h (2 Bft) SW 230 0 min 0,000 mm 0,0 UV-I 0 W/m 2,2 C -1,1 C 16,1 km/h (3 Bft) 95,97 %
03.02.2016 21:10 2,9 C 94 % 1018,9 hPa 0,0 l/m 11,3 km/h (2 Bft) W-SW 258 0 min 0,000 mm 0,0 UV-I 0 W/m 2,0 C -1,2 C 17,7 km/h (3 Bft) 97,44 %
03.02.2016 21:15 3,0 C 94 % 1019,0 hPa 0,0 l/m 12,2 km/h (2 Bft) W-SW 244 0 min 0,000 mm 0,0 UV-I 0 W/m 2,1 C -1,7 C 19,3 km/h (3 Bft) 98,31 %
03.02.2016 21:20 3,1 C 94 % 1019,2 hPa 0,0 l/m 13,2 km/h (3 Bft) W-SW 242 0 min 0,000 mm 0,0 UV-I 0 W/m 2,2 C -2,2 C 20,9 km/h (4 Bft) 98,31 %
03.02.2016 21:25 3,1 C 94 % 1019,2 hPa 0,0 l/m 12,0 km/h (2 Bft) W-SW 248 0 min 0,000 mm 0,0 UV-I 0 W/m 2,2 C -1,4 C 20,9 km/h (4 Bft) 99,07 %
03.02.2016 21:30 3,1 C 94 % 1019,1 hPa 0,0 l/m 11,7 km/h (2 Bft) W 261 0 min 0,000 mm 0,0 UV-I 0 W/m 2,2 C -1,2 C 20,9 km/h (4 Bft) 99,15 %
03.02.2016 21:35 3,1 C 94 % 1019,2 hPa 0,0 l/m 12,6 km/h (3 Bft) W 263 0 min 0,000 mm 0,0 UV-I 0 W/m 2,2 C -1,8 C 19,3 km/h (3 Bft) 100,00 %
03.02.2016 21:40 3,1 C 94 % 1019,0 hPa 0,0 l/m 15,5 km/h (3 Bft) W-SW 250 0 min 0,000 mm 0,0 UV-I 0 W/m 2,2 C -3,5 C 24,1 km/h (4 Bft) 97,44 %
03.02.2016 21:45 3,3 C 93 % 1019,1 hPa 0,0 l/m 14,9 km/h (3 Bft) W 271 0 min 0,000 mm 0,0 UV-I 0 W/m 2,3 C -2,9 C 29,0 km/h (5 Bft) 100,00 %
03.02.2016 21:50 3,3 C 92 % 1019,4 hPa 0,0 l/m 16,0 km/h (3 Bft) W-SW 250 0 min 0,000 mm 0,0 UV-I 0 W/m 2,1 C -3,5 C 25,7 km/h (4 Bft) 99,08 %
03.02.2016 21:55 3,4 C 91 % 1019,7 hPa 0,2 l/m 16,6 km/h (3 Bft) W-SW 258 0 min 0,000 mm 0,0 UV-I 0 W/m 2,1 C -3,7 C 27,4 km/h (4 Bft) 99,21 %
03.02.2016 22:00 3,4 C 90 % 1020,0 hPa 0,0 l/m 17,5 km/h (3 Bft) W-SW 255 0 min 0,000 mm 0,0 UV-I 0 W/m 1,9 C -4,1 C 35,4 km/h (5 Bft) 97,25 %
03.02.2016 22:05 3,4 C 89 % 1020,0 hPa 0,0 l/m 21,1 km/h (4 Bft) W-NW 284 0 min 0,000 mm 0,0 UV-I 0 W/m 1,8 C -5,7 C 33,8 km/h (5 Bft) 99,15 %
03.02.2016 22:10 3,4 C 88 % 1019,8 hPa 0,0 l/m 17,2 km/h (3 Bft) W 265 0 min 0,000 mm 0,0 UV-I 0 W/m 1,6 C -4,0 C 38,6 km/h (5 Bft) 99,17 %
03.02.2016 22:15 3,4 C 88 % 1019,8 hPa 0,0 l/m 16,2 km/h (3 Bft) W-NW 292 0 min 0,000 mm 0,0 UV-I 0 W/m 1,6 C -3,5 C 32,2 km/h (5 Bft) 100,00 %
03.02.2016 22:20 3,3 C 87 % 1020,0 hPa 0,0 l/m 17,2 km/h (3 Bft) W 265 0 min 0,000 mm 0,0 UV-I 0 W/m 1,3 C -4,1 C 32,2 km/h (5 Bft) 99,10 %
03.02.2016 22:25 3,3 C 85 % 1020,5 hPa 0,0 l/m 20,3 km/h (4 Bft) W 273 0 min 0,000 mm 0,0 UV-I 0 W/m 1,0 C -5,5 C 37,0 km/h (5 Bft) 99,11 %
03.02.2016 22:30 3,3 C 85 % 1020,6 hPa 0,0 l/m 18,7 km/h (3 Bft) W-NW 298 0 min 0,000 mm 0,0 UV-I 0 W/m 1,0 C -4,8 C 38,6 km/h (5 Bft) 98,39 %
03.02.2016 22:35 3,2 C 83 % 1020,9 hPa 0,0 l/m 23,8 km/h (4 Bft) W 276 0 min 0,000 mm 0,0 UV-I 0 W/m 0,6 C -7,0 C 48,3 km/h (6 Bft) 100,00 %
03.02.2016 22:40 3,1 C 84 % 1021,1 hPa 0,0 l/m 23,1 km/h (4 Bft) W-SW 256 0 min 0,000 mm 0,0 UV-I 0 W/m 0,7 C -6,8 C 38,6 km/h (5 Bft) 99,17 %
03.02.2016 22:45 2,9 C 84 % 1021,3 hPa 0,0 l/m 19,6 km/h (3 Bft) W 277 0 min 0,000 mm 0,0 UV-I 0 W/m 0,5 C -5,7 C 45,1 km/h (6 Bft) 99,10 %
03.02.2016 22:50 2,8 C 84 % 1021,3 hPa 0,0 l/m 21,9 km/h (4 Bft) W 274 0 min 0,000 mm 0,0 UV-I 0 W/m 0,4 C -6,8 C 43,5 km/h (6 Bft) 97,39 %
03.02.2016 22:55 2,7 C 83 % 1021,5 hPa 0,0 l/m 18,1 km/h (3 Bft) W-SW 245 0 min 0,000 mm 0,0 UV-I 0 W/m 0,1 C -5,3 C 38,6 km/h (5 Bft) 98,26 %
03.02.2016 23:00 2,6 C 83 % 1021,5 hPa 0,0 l/m 21,5 km/h (4 Bft) W-NW 288 0 min 0,025 mm 0,0 UV-I 0 W/m 0,0 C -6,9 C 40,2 km/h (6 Bft) 95,93 %
03.02.2016 23:05 2,5 C 82 % 1021,8 hPa 0,0 l/m 24,8 km/h (4 Bft) W-SW 238 0 min 0,000 mm 0,0 UV-I 0 W/m -0,3 C -8,3 C 48,3 km/h (6 Bft) 95,54 %
03.02.2016 23:10 2,4 C 82 % 1022,1 hPa 0,0 l/m 24,3 km/h (4 Bft) W-NW 286 0 min 0,000 mm 0,0 UV-I 0 W/m -0,4 C -8,2 C 43,5 km/h (6 Bft) 97,62 %
03.02.2016 23:15 2,4 C 81 % 1022,2 hPa 0,0 l/m 21,9 km/h (4 Bft) W-SW 243 0 min 0,000 mm 0,0 UV-I 0 W/m -0,5 C -7,3 C 46,7 km/h (6 Bft) 95,41 %
03.02.2016 23:20 2,4 C 82 % 1022,4 hPa 0,0 l/m 21,8 km/h (4 Bft) W-SW 244 0 min 0,000 mm 0,0 UV-I 0 W/m -0,4 C -7,3 C 40,2 km/h (6 Bft) 97,46 %
03.02.2016 23:25 2,4 C 81 % 1022,5 hPa 0,0 l/m 22,6 km/h (4 Bft) W 280 0 min 0,000 mm 0,0 UV-I 0 W/m -0,5 C -7,6 C 35,4 km/h (5 Bft) 98,90 %
03.02.2016 23:30 2,4 C 81 % 1022,4 hPa 0,0 l/m 21,1 km/h (4 Bft) W-SW 257 0 min 0,000 mm 0,0 UV-I 0 W/m -0,5 C -7,0 C 35,4 km/h (5 Bft) 98,64 %
03.02.2016 23:35 2,3 C 81 % 1022,4 hPa 0,0 l/m 18,8 km/h (3 Bft) W-SW 258 0 min 0,000 mm 0,0 UV-I 0 W/m -0,6 C -6,1 C 32,2 km/h (5 Bft) 99,19 %
03.02.2016 23:40 2,3 C 81 % 1022,4 hPa 0,0 l/m 17,7 km/h (3 Bft) W-SW 258 0 min 0,000 mm 0,0 UV-I 0 W/m -0,6 C -5,6 C 30,6 km/h (5 Bft) 98,29 %
03.02.2016 23:45 2,2 C 80 % 1022,4 hPa 0,0 l/m 18,6 km/h (3 Bft) SW 232 0 min 0,000 mm 0,0 UV-I 0 W/m -0,9 C -6,2 C 33,8 km/h (5 Bft) 99,11 %
03.02.2016 23:50 2,2 C 80 % 1022,5 hPa 0,0 l/m 20,7 km/h (4 Bft) W 279 0 min 0,000 mm 0,0 UV-I 0 W/m -0,9 C -7,1 C 33,8 km/h (5 Bft) 99,11 %
03.02.2016 23:55 2,2 C 80 % 1022,7 hPa 0,0 l/m 19,4 km/h (3 Bft) W 269 0 min 0,000 mm 0,0 UV-I 0 W/m -0,9 C -6,5 C 30,6 km/h (5 Bft) 96,58 %
_ Min-Zeit 23:45 04:50 04:25 - 09:05 - - - - - - 23:45 23:05 08:35 16:50
Minimum _ 2,2 C 69 % 1015,8 hPa - 5,4 km/h (1 Bft) - - - - - - -0,9 C -8,3 C 9,7 km/h (2 Bft) 93,04 %
_ Max-Zeit 04:35 14:05 23:55 11:05 01:35 - - 00:00 04:00 00:00 10:20 00:05 05:20 22:35 00:35
Maximum _ 9,7 C 95 % 1022,7 hPa 0,2 l/m 25,7 km/h
W-SW (4 Bft)
- - 0 min 0,077 mm 0,0 UV-I 50 W/m 4,9 C 6,3 C 48,3 km/h
W-NW (6 Bft)
100,00 %
Durchschnitt _ 5,1 C 85 % 1017,1 hPa #6,2 l/m 13,9 km/h (3 Bft) SW - #0 min. #0,584 mm 0,0 UV-I 29 W/m 2,7 C 0,2 C 24,0 km/h (4 Bft) 98,58 %